[[{"header":{"parameterUnit":"m.s-1","parameterCategory":1,"la1":30.2991,"la2":30.254,"lo1":-89.0895,"lo2":-89.0444,"dy":0.0017,"dx":0.0017,"nx":28,"ny":28,"refTime":"2025-12-04T09:00:00:Z","depth":0,"parameterNumber":2,"parameterNumberName":"U-component_of_WINDS"},"data":[0,0,0,0,0,0,0,0,0,0,0,0,0,0,0,0,0,0,0,0,0,0,0,0,0,0,0,0,0,0,0,0,0,0,0,0,0,0,0,0,0,0,0,0,0,0,0,0,0,0,0,0,0,0,0,0,0,0,-4.4969,-4.4969,0,-4.4969,-4.4969,-4.4969,-4.4808,-4.4804,-4.4799,-4.4795,-4.48,-4.4804,-4.4808,0,0,0,0,0,0,0,0,0,0,0,0,0,-4.4831,-4.4834,-4.4969,-4.4969,-4.4969,-4.4969,-4.4969,-4.4969,-4.4809,-4.4803,-4.4798,-4.4793,-4.4799,-4.4804,-4.4809,0,0,0,0,0,0,0,0,0,0,0,0,0,-4.4867,-4.4835,-4.4969,-4.4888,-4.4881,-4.4969,-4.4969,-4.4969,-4.481,-4.4803,-4.4797,-4.4791,-4.4797,-4.4803,-4.4809,-4.4975,0,0,-4.4828,-4.4831,0,0,0,0,0,0,0,0,-4.4865,-4.4872,-4.49,-4.4894,-4.4886,-4.4882,-4.4922,-4.4972,-4.4811,-4.4837,-4.4795,-4.4788,-4.4833,-4.4836,-4.485,-4.4976,-4.4976,-4.4829,-4.4832,-4.4835,-4.4837,0,0,0,0,0,0,0,-4.4863,-4.4871,-4.4969,-4.4901,-4.4892,-4.4853,-4.4851,-4.4931,-4.4871,-4.4834,-4.4823,-4.4825,-4.4828,-4.4844,-4.4849,-4.4976,-4.4828,-4.4834,-4.4838,-4.484,-4.5239,-4.5246,0,0,0,0,0,0,-4.4871,-4.487,-4.4969,-4.4969,-4.486,-4.4861,-4.4859,-4.489,-4.487,-4.486,-4.483,-4.4817,-4.4837,-4.4842,-4.4848,-4.5043,-4.4835,-4.4841,-4.4844,-4.5232,-4.5241,-4.5248,0,0,0,0,0,0,-4.4869,-4.4881,-4.4969,-4.4916,-4.4925,-4.487,-4.4906,-4.4893,-4.491,-4.4866,-4.4855,-4.4858,-4.4832,-4.484,-4.4945,-4.5041,-4.4843,-4.4849,-4.5224,-4.5235,-4.5244,-4.5433,0,0,0,0,0,0,-4.4865,-4.4881,-4.4943,-4.4919,-4.4928,-4.5065,-4.4912,-4.4898,-4.492,-4.4903,-4.489,-4.4881,-4.4828,-4.4937,-4.4951,-4.5046,-4.4854,-4.5215,-4.5229,-4.5241,-4.5418,-4.5449,-4.5475,0,0,0,0,0,-4.4861,-4.4997,-4.4947,-4.496,-4.5004,-4.5071,-4.5076,-4.5011,-4.4929,-4.4991,-4.4963,-4.4882,-4.5027,-4.4949,-4.4964,-4.5062,-4.5209,-4.5225,-4.524,-4.5405,-4.5443,-4.5474,0,0,0,0,0,0,-4.5035,-4.4992,-4.4937,-4.5069,-4.5075,-4.5044,-4.512,-4.5052,-4.5082,-4.5065,-4.4984,-4.4982,-4.5101,-4.5091,-4.5004,-4.5222,-4.5104,-4.5123,-4.5224,-4.5259,-4.5287,-4.5288,-4.4859,0,0,0,0,0,-4.5089,-4.5146,-4.5105,-4.5226,-4.5231,-4.5176,-4.5202,-4.5151,-4.5155,-4.5157,-4.5136,-4.5144,-4.5191,-4.5224,-4.5265,-4.5415,-4.5411,-4.549,-4.5518,-4.5541,-4.556,-4.564,-4.5675,-4.5299,-4.5299,-4.5299,0,0,-4.5201,-4.5184,-4.5225,-4.526,-4.5259,-4.5321,-4.5179,-4.525,-4.5296,-4.5168,-4.5266,-4.5252,-4.5254,-4.5383,-4.5439,-4.5379,-4.5662,-4.5561,-4.558,-4.5586,-4.566,-4.5695,-4.5727,-4.531,-4.5308,-4.5306,0,0,-4.5436,-4.5429,-4.5529,-4.553,-4.5529,-4.5491,-4.5515,-4.5495,-4.548,-4.5577,-4.5482,-4.5536,-4.5618,-4.5625,-4.5639,-4.5877,-4.5804,-4.5892,-4.6042,-4.612,-4.615,-4.6176,-4.6263,-4.6295,-4.591,-4.5911,-4.5911,0,-4.5576,-4.5664,-4.5589,-4.5667,-4.5686,-4.5571,-4.5673,-4.5678,-4.5691,-4.5708,-4.5639,-4.5742,-4.5735,-4.5865,-4.5923,-4.5937,-4.5964,-4.5895,-4.6152,-4.6177,-4.62,-4.6282,-4.6315,-4.5922,-4.5921,-4.5919,-4.5918,0,-4.5837,-4.59,-4.5981,-4.5996,-4.6023,-4.6113,-4.6053,-4.609,-4.6036,-4.6006,-4.6107,-4.6095,-4.6133,-4.6159,-4.6107,-4.6282,-4.6245,-4.6166,-4.6046,-4.6248,-4.6324,-4.6355,-4.5938,-4.5934,-4.593,-4.5928,0,0,-4.6185,-4.6156,-4.6188,-4.6193,-4.6183,-4.6231,-4.6316,-4.6351,-4.6386,-4.6398,-4.6469,-4.6541,-4.6468,-4.6484,-4.6432,-4.6501,-4.6693,-4.6413,-4.6412,-4.6468,-4.6887,-4.6948,-4.6986,-4.6643,-4.6649,-4.6653,-4.6887,0,-4.6415,-4.6557,-4.6492,-4.6642,-4.67,-4.6591,-4.6665,-4.6668,-4.6642,-4.6688,-4.6659,-4.6713,-4.6611,-4.662,-4.6683,-4.6657,-4.6777,-4.6638,-4.671,-4.6714,-4.6716,-4.7025,-4.709,-4.7312,-4.6916,-4.6921,-4.6925,0,-4.6703,-4.6727,-4.6883,-4.6863,-4.6885,-4.6953,-4.698,-4.7025,-4.7026,-4.7002,-4.7021,-4.6953,-4.7036,-4.6915,-4.7029,-4.6937,-4.6962,-4.6953,-4.696,-4.6967,-4.6834,-4.7042,-4.738,-4.7415,-4.697,-4.6966,-4.6963,0,-4.6944,-4.7015,-4.7118,-4.7126,-4.7105,-4.7155,-4.7149,-4.7143,-4.7169,-4.7193,-4.7209,-4.7243,-4.7263,-4.7291,-4.7235,-4.7152,-4.7358,-4.7232,-4.7343,-4.7345,-4.7393,-4.7392,-4.7743,-4.7406,-4.7405,-4.7405,-4.7404,0,-4.721,-4.731,-4.7226,-4.729,-4.7399,-4.7323,-4.7434,-4.7415,-4.7412,-4.7471,-4.7378,-4.7436,-4.7357,-4.7408,-4.7364,-4.7466,-4.7475,-4.746,-4.7448,-4.747,-4.7472,-4.7487,-4.7472,-4.7413,-4.7411,-4.741,-4.7408,0,-4.7499,-4.7446,-4.7551,-4.7522,-4.7517,-4.76,-4.7575,-4.7633,-4.76,-4.7676,-4.769,-4.7638,-4.7693,-4.7639,-4.769,-4.7661,-4.7799,-4.7763,-4.7799,-4.779,-4.7904,-4.7896,-4.828,-4.8327,-4.7958,-4.7961,-4.7964,0,-4.7673,-4.7747,-4.7726,-4.7758,-4.7758,-4.7811,-4.7836,-4.7764,-4.7795,-4.7802,-4.786,-4.7906,-4.794,-4.8032,-4.8001,-4.804,-4.8006,-4.8138,-4.8011,-4.8032,-4.8011,-4.8008,-4.8016,-4.8165,-4.8169,-4.8173,-4.8175,0,-4.7989,-4.7959,-4.7998,-4.803,-4.8062,-4.8084,-4.8098,-4.813,-4.8055,-4.8094,-4.8148,-4.8174,-4.8226,-4.8275,-4.8304,-4.8298,-4.8227,-4.8215,-4.8243,-4.8268,-4.8287,-4.8281,-4.7872,-4.8207,-4.8204,-4.8202,-4.82,-4.8199,-4.8227,-4.8289,-4.8284,-4.8331,-4.8334,-4.8349,-4.8403,-4.8376,-4.8419,-4.8455,-4.841,-4.8478,-4.8477,-4.8509,-4.8512,-4.8565,-4.8509,-4.8549,-4.856,-4.8572,-4.859,-4.8276,-4.8569,-4.8568,-4.8567,-4.8567,-4.8566,0,-4.854,-4.8531,-4.8575,-4.8598,-4.8636,-4.8561,-4.8573,-4.8611,-4.8671,-4.8676,-4.871,-4.8773,-4.8819,-4.8791,-4.883,-4.8878,-4.8846,-4.8891,-4.8889,-4.8889,-4.8636,-4.8609,-4.8917,-4.8917,-4.8917,-4.8916,-4.8916,-4.8916,-4.8708,-4.8809,-4.8778,-4.888,-4.887,-4.8935,-4.8948,-4.8963,-4.8966,-4.904,-4.9078,-4.9058,-4.905,-4.9088,-4.9128,-4.9118,-4.9139,-4.9197,-4.9176,-4.8941,-4.8907,-4.8874,-4.8848,-4.9201,-4.9201,-4.9424,-4.9427,-4.9428]},{"header":{"parameterUnit":"m.s-1","parameterCategory":1,"la1":30.2991,"la2":30.254,"lo1":-89.0895,"lo2":-89.0444,"dy":0.0017,"dx":0.0017,"nx":28,"ny":28,"refTime":"2025-12-04T09:00:00:Z","depth":0,"parameterNumber":3,"parameterNumberName":"V-component_of_WINDS"},"data":[0,0,0,0,0,0,0,0,0,0,0,0,0,0,0,0,0,0,0,0,0,0,0,0,0,0,0,0,0,0,0,0,0,0,0,0,0,0,0,0,0,0,0,0,0,0,0,0,0,0,0,0,0,0,0,0,0,0,-4.4682,-4.4682,0,-4.4659,-4.4659,-4.4659,-4.459,-4.4588,-4.4586,-4.4585,-4.4562,-4.4563,-4.4563,0,0,0,0,0,0,0,0,0,0,0,0,0,-4.4664,-4.4665,-4.4682,-4.4682,-4.4681,-4.4659,-4.4659,-4.4659,-4.459,-4.4588,-4.4586,-4.4584,-4.4562,-4.4563,-4.4563,0,0,0,0,0,0,0,0,0,0,0,0,0,-4.466,-4.4665,-4.4682,-4.4644,-4.4641,-4.4659,-4.4659,-4.4659,-4.459,-4.4588,-4.4586,-4.4583,-4.4561,-4.4562,-4.4564,-4.4617,0,0,-4.4567,-4.4568,0,0,0,0,0,0,0,0,-4.466,-4.4661,-4.465,-4.4647,-4.4643,-4.4625,-4.4644,-4.4645,-4.4591,-4.4609,-4.4585,-4.4582,-4.4585,-4.4584,-4.4585,-4.4616,-4.4615,-4.4567,-4.4568,-4.4569,-4.4569,0,0,0,0,0,0,0,-4.4661,-4.4661,-4.4673,-4.465,-4.4646,-4.4628,-4.4625,-4.4644,-4.461,-4.4608,-4.4602,-4.4601,-4.4582,-4.4584,-4.4584,-4.4614,-4.4567,-4.4568,-4.4569,-4.457,-4.4686,-4.4688,0,0,0,0,0,0,-4.4666,-4.4662,-4.4674,-4.4672,-4.4646,-4.463,-4.4627,-4.4633,-4.461,-4.4604,-4.4603,-4.4598,-4.4583,-4.4582,-4.4582,-4.4641,-4.4569,-4.457,-4.457,-4.4683,-4.4686,-4.4689,0,0,0,0,0,0,-4.4666,-4.4668,-4.4675,-4.4666,-4.4665,-4.4633,-4.4641,-4.4634,-4.4635,-4.4606,-4.46,-4.461,-4.4581,-4.4581,-4.4608,-4.4639,-4.457,-4.4571,-4.4681,-4.4684,-4.4687,-4.476,0,0,0,0,0,0,-4.4666,-4.4669,-4.4689,-4.4667,-4.4666,-4.4701,-4.4643,-4.4635,-4.4637,-4.463,-4.4611,-4.4606,-4.4579,-4.4607,-4.4609,-4.464,-4.4572,-4.4678,-4.4682,-4.4686,-4.4755,-4.4766,-4.4775,0,0,0,0,0,-4.4666,-4.4711,-4.469,-4.4692,-4.4691,-4.4703,-4.4703,-4.4671,-4.464,-4.466,-4.4641,-4.4607,-4.4636,-4.461,-4.4613,-4.4644,-4.4675,-4.4681,-4.4686,-4.475,-4.4764,-4.4775,0,0,0,0,0,0,-4.4738,-4.4707,-4.4684,-4.4723,-4.4716,-4.4692,-4.4715,-4.4686,-4.4688,-4.4681,-4.4641,-4.4638,-4.467,-4.466,-4.4632,-4.4693,-4.465,-4.4656,-4.4698,-4.4711,-4.4721,-4.4721,-4.4573,0,0,0,0,0,-4.4758,-4.4771,-4.4744,-4.4781,-4.4779,-4.4748,-4.4752,-4.4728,-4.4719,-4.4716,-4.4699,-4.4692,-4.4699,-4.4705,-4.471,-4.4754,-4.4747,-4.4776,-4.4787,-4.4795,-4.48,-4.482,-4.4832,-4.4706,-4.4706,-4.4706,0,0,-4.4801,-4.4786,-4.4796,-4.4795,-4.4787,-4.48,-4.4746,-4.4763,-4.4772,-4.4719,-4.4743,-4.473,-4.4719,-4.4755,-4.477,-4.4747,-4.4834,-4.4802,-4.4809,-4.4809,-4.4827,-4.4839,-4.4849,-4.471,-4.4709,-4.4709,0,0,-4.4884,-4.4875,-4.4904,-4.4896,-4.4884,-4.4863,-4.487,-4.485,-4.4839,-4.4863,-4.4822,-4.4833,-4.4847,-4.484,-4.4838,-4.4918,-4.4886,-4.4921,-4.4973,-4.4994,-4.5003,-4.5012,-4.5038,-4.5048,-4.4927,-4.4927,-4.4927,0,-4.4938,-4.4957,-4.4922,-4.4942,-4.4941,-4.4893,-4.4921,-4.4916,-4.4907,-4.4907,-4.4883,-4.4898,-4.4887,-4.4919,-4.4938,-4.4939,-4.4945,-4.4922,-4.5005,-4.5013,-4.5021,-4.5045,-4.5055,-4.4931,-4.4931,-4.493,-4.493,0,-4.5023,-4.5037,-4.5062,-4.5052,-4.5056,-4.508,-4.5048,-4.5055,-4.503,-4.5012,-4.5036,-4.5021,-4.5021,-4.5028,-4.5005,-4.5056,-4.5042,-4.5012,-4.4968,-4.5037,-4.5059,-4.5069,-4.4937,-4.4935,-4.4934,-4.4933,0,0,-4.5151,-4.5121,-4.5131,-4.5125,-4.5108,-4.5118,-4.5139,-4.5139,-4.5145,-4.514,-4.5156,-4.5168,-4.514,-4.5138,-4.5113,-4.5131,-4.5192,-4.5098,-4.5097,-4.5114,-4.5246,-4.5267,-4.5278,-4.5172,-4.5174,-4.5175,-4.5246,0,-4.5228,-4.5262,-4.523,-4.527,-4.5281,-4.5235,-4.5253,-4.5244,-4.5228,-4.5234,-4.5216,-4.5224,-4.5187,-4.5185,-4.5201,-4.5182,-4.5218,-4.5177,-4.5184,-4.5185,-4.5186,-4.529,-4.5313,-4.538,-4.5254,-4.5256,-4.5257,0,-4.5322,-4.532,-4.5361,-4.5339,-4.5343,-4.536,-4.5356,-4.5364,-4.5352,-4.5339,-4.5336,-4.5306,-4.5324,-4.5282,-4.5306,-4.5278,-4.528,-4.5271,-4.5273,-4.527,-4.5224,-4.5289,-4.5401,-4.5411,-4.5271,-4.527,-4.5269,0,-4.5408,-4.5416,-4.5441,-4.5438,-4.5414,-4.5426,-4.5417,-4.5403,-4.5405,-4.5402,-4.5402,-4.5402,-4.5402,-4.5402,-4.5372,-4.5344,-4.5398,-4.5354,-4.5386,-4.5387,-4.5398,-4.5397,-4.551,-4.5403,-4.5403,-4.5403,-4.5402,0,-4.5496,-4.5522,-4.5479,-4.5494,-4.5521,-4.5485,-4.5513,-4.5499,-4.5487,-4.5498,-4.5459,-4.547,-4.5431,-4.5437,-4.5415,-4.5436,-4.5437,-4.5425,-4.5418,-4.5427,-4.5428,-4.5426,-4.542,-4.5405,-4.5405,-4.5404,-4.5404,0,-4.5596,-4.5568,-4.5591,-4.5567,-4.5561,-4.5582,-4.556,-4.5573,-4.5553,-4.5568,-4.5569,-4.5538,-4.5544,-4.5514,-4.5515,-4.5499,-4.5532,-4.5518,-4.5535,-4.553,-4.5562,-4.5559,-4.5676,-4.5688,-4.5576,-4.5577,-4.5578,0,-4.5652,-4.5671,-4.5648,-4.5652,-4.5645,-4.5653,-4.5653,-4.5619,-4.5621,-4.5609,-4.5622,-4.5625,-4.5624,-4.5635,-4.5613,-4.5612,-4.5597,-4.5638,-4.5597,-4.5604,-4.5595,-4.5593,-4.5593,-4.5646,-4.5648,-4.5649,-4.565,0,-4.5755,-4.574,-4.5743,-4.5741,-4.5743,-4.574,-4.5734,-4.574,-4.5702,-4.5707,-4.5711,-4.5711,-4.5711,-4.5713,-4.5708,-4.5698,-4.5667,-4.5663,-4.567,-4.5678,-4.5686,-4.568,-4.5556,-4.566,-4.5659,-4.5658,-4.5658,-4.5657,-4.5833,-4.5847,-4.5832,-4.5836,-4.5828,-4.5823,-4.5833,-4.5814,-4.5818,-4.5815,-4.5794,-4.5803,-4.5789,-4.5779,-4.5772,-4.5777,-4.5757,-4.5768,-4.577,-4.5773,-4.5777,-4.5688,-4.5776,-4.5776,-4.5776,-4.5776,-4.5775,0,-4.5932,-4.592,-4.5924,-4.5917,-4.5919,-4.5891,-4.5882,-4.5886,-4.5894,-4.5884,-4.5884,-4.5889,-4.5891,-4.5868,-4.5867,-4.5875,-4.5861,-4.5876,-4.5873,-4.5871,-4.5796,-4.5789,-4.5887,-4.5887,-4.5887,-4.5887,-4.5887,-4.5887,-4.5984,-4.6004,-4.5988,-4.6003,-4.5991,-4.5999,-4.5996,-4.5991,-4.5982,-4.5989,-4.599,-4.5976,-4.596,-4.5957,-4.5957,-4.595,-4.595,-4.5969,-4.5958,-4.5888,-4.5877,-4.5866,-4.5859,-4.597,-4.597,-4.6031,-4.6032,-4.6033]}]]